Regional Weather Roundup
Issued by NWS

Home | Current Version | Previous Version | Graphics & Text | Print | Product List | Glossary On
Versions: 1 2 3 4 5 6 7 8 9 10 11 12 13 14 15 16 17 18 19 20 21 22 23 24 25 26 27 28 29 30 31 32 33 34 35 36 37 38 39 40 41 42 43 44 45 46 47 48 49 50
000
ASUS43 KTOP 190308
RWRKS

WEATHER ROUNDUP FOR KANSAS
NATIONAL WEATHER SERVICE GOODLAND KS
900 PM CST THU DEC 18 2014

NOTE:  "FAIR" INDICATES FEW OR NO CLOUDS BELOW 12,000 FEET WITH NO
SIGNIFICANT WEATHER AND/OR OBSTRUCTIONS TO VISIBILITY.

KSZ001>006-013>018-027>032-041>047-190400-
NORTHWEST KANSAS

CITY           SKY/WX    TMP DP  RH WIND       PRES   REMARKS
GOODLAND       CLEAR     25  23  92 SW5       30.11S FOG
HAYS           CLOUDY    34  23  64 CALM      30.18S
HILL CITY      CLOUDY    32  28  85 S3        30.17S
RUSSELL        CLOUDY    30  29  96 SE6       30.18S
$$

KSZ061>065-074>080-084>089-190400-
SOUTHWEST KANSAS

CITY           SKY/WX    TMP DP  RH WIND       PRES   REMARKS
DODGE CITY     CLOUDY    33  29  85 SE5       30.17R
ELKHART          N/A     32  27  82 S5          N/A
GARDEN CITY    CLOUDY    32  31  96 S7        30.15R
GREAT BEND     CLOUDY    30  25  80 SE3       30.21R
LIBERAL        CLOUDY    36  30  80 S7        30.18R
PRATT          CLOUDY    32  32 100 CALM      30.21R
$$

KSZ066>073-081>083-090>101-190400-
SOUTHEAST KANSAS

CITY           SKY/WX    TMP DP  RH WIND       PRES   REMARKS
CHANUTE        CLOUDY    34  32  92 N3        30.24R FOG
COFFEYVILLE    CLOUDY    36  34  92 N6        30.24R
HUTCHINSON     CLOUDY    30  27  88 NE3       30.22R FOG
MEDICINE LODGE   N/A     34  30  85 SE5       30.22R
NEWTON         CLOUDY    28  25  86 E5        30.24R
PARSONS        CLOUDY    36  34  92 N3        30.25R
WICHITA INTL   CLOUDY    32  29  88 E5        30.23R
WICHITA JABRA  CLOUDY    30  28  92 VRB5      30.23R
WICHITA MCCONL CLOUDY    31  29  92 E5        30.23R
WINFIELD       CLOUDY    34  32  92 N8        30.24S
$$

KSZ007>012-019>026-033>040-048>060-102>105-190400-
NORTHEAST KANSAS

CITY           SKY/WX    TMP DP  RH WIND       PRES   REMARKS
CONCORDIA      CLOUDY    28  26  92 S5        30.21S
EMPORIA        CLOUDY    31  29  92 N5        30.23R
LAWRENCE       CLOUDY    32  29  88 N3        30.26R
MANHATTAN      CLOUDY    32  28  85 SE3       30.25R
MARYSVILLE     CLOUDY    30  28  93 CALM      30.23S
OLATHE IND     CLOUDY    32  31  96 CALM      30.24R FOG
OLATHE EXE     CLOUDY    32  30  92 E3        30.23R FOG
SALINA         CLOUDY    31  26  82 CALM      30.24S
TOPEKA BILLARD CLOUDY    33  29  85 CALM      30.26R
TOPEKA FORBES  CLOUDY    32  28  85 CALM      30.24R
$$



USA.gov is the U.S. government's official web portal to all federal, state and local government web resources and services.